Weather History for Roswell, NM

Change the Weather History Date:

Thursday, July 24, 2014

  Actual Average Record
Temperature  
Mean Temperature 83 °F 80 °F  
Max Temperature 98 °F 93 °F 106 °F (1958)
Min Temperature 68 °F 67 °F 57 °F (1894)
Degree Days  
Heating Degree Days 0 0  
Month to date heating degree days 0 0  
Since 1 June heating degree days 0 1  
Since 1 July heating degree days 0 0  
Cooling Degree Days 18 15  
Month to date cooling degree days 384 372  
Year to date cooling degree days 1118 994  
Since 1 June cooling degree days 864 769  
Growing Degree Days 32 (Base 50)    
Moisture  
Dew Point 50 °F    
Average Humidity 38    
Maximum Humidity 61    
Minimum Humidity 15    
Precipitation  
Precipitation 0.00 in 0.06 in 1.89 in (1950)
Month to date precipitation 0.65 1.65  
Year to date precipitation 6.94 6.55  
Sea Level Pressure  
Sea Level Pressure 29.93 in    
Wind  
Wind Speed 7 mph (SSE)    
Max Wind Speed 18 mph    
Max Gust Speed 23 mph    
Visibility 10 miles    
Events      
T = Trace of Precipitation, MM = Missing Value Source: NWS Daily Summary

Daily Weather History Graph

Daily Weather History Graph

Search for Another Location

Airport:

Trip Planner

Search our weather history database for the weather conditions in past years. The results will help you decide how hot, cold, wet, or windy it might be!

Date:

Astronomy

Jul. 24, 2014 Rise Set
Actual Time 6:05 AM MDT 8:03 PM MDT
Civil Twilight 5:37 AM MDT 8:30 PM MDT
Nautical Twilight 5:04 AM MDT 9:04 PM MDT
Astronomical Twilight 4:28 AM MDT 9:40 PM MDT
Moon 4:14 AM MDT (7/24) 6:21 PM MDT (7/24)
Length of Visible Light 14h 53m
Length of Day
13h 57m
Waning Crescent, 4% of the Moon is Illuminated
Jul 24
Waning Crescent
Jul 26
New
Aug 3
First Quarter
Aug 10
Full
Aug 17
Last Quarter

Hourly Weather History & Observations

Time (MDT) Temp. Heat Index Dew Point Humidity Pressure Visibility Wind Dir Wind Speed Gust Speed Precip Events Conditions
12:51 AM 78.1 °F - 55.0 °F 45% 29.99 in 10.0 mi SE 5.8 mph - N/A   Clear
1:51 AM 75.9 °F - 54.0 °F 46% 29.98 in 10.0 mi West 6.9 mph - N/A   Clear
2:51 AM 73.9 °F - 53.1 °F 48% 29.97 in 10.0 mi West 3.5 mph - N/A   Clear
3:51 AM 73.0 °F - 54.0 °F 51% 29.97 in 10.0 mi Calm Calm - N/A   Clear
4:51 AM 70.0 °F - 54.0 °F 57% 29.98 in 10.0 mi Calm Calm - N/A   Clear
5:51 AM 72.0 °F - 53.1 °F 51% 29.98 in 10.0 mi West 3.5 mph - N/A   Clear
6:51 AM 70.0 °F - 55.0 °F 59% 30.01 in 10.0 mi Calm Calm - N/A   Clear
7:51 AM 77.0 °F - 55.0 °F 47% 30.01 in 10.0 mi Calm Calm - N/A   Clear
8:51 AM 82.0 °F 81.4 °F 55.0 °F 39% 30.01 in 10.0 mi SSE 3.5 mph - N/A   Clear
9:51 AM 86.0 °F 84.7 °F 55.9 °F 36% 29.99 in 10.0 mi Variable 3.5 mph - N/A   Clear
10:51 AM 90.0 °F 87.9 °F 55.0 °F 30% 29.98 in 10.0 mi Calm Calm - N/A   Clear
11:51 AM 93.0 °F 90.6 °F 53.1 °F 26% 29.96 in 10.0 mi SSE 11.5 mph - N/A   Clear
12:51 PM 96.1 °F - 48.9 °F 20% 29.93 in 10.0 mi SE 8.1 mph 17.3 mph N/A   Clear
1:51 PM 96.1 °F - 45.0 °F 17% 29.92 in 10.0 mi ESE 11.5 mph - N/A   Clear
2:51 PM 98.1 °F - 45.0 °F 16% 29.90 in 10.0 mi ESE 12.7 mph 19.6 mph N/A   Clear
3:51 PM 97.0 °F - 46.9 °F 18% 29.88 in 10.0 mi ESE 10.4 mph - N/A   Clear
4:51 PM 98.1 °F - 45.0 °F 16% 29.86 in 10.0 mi SE 15.0 mph 21.9 mph N/A   Clear
5:51 PM 98.1 °F - 43.0 °F 15% 29.84 in 10.0 mi ESE 13.8 mph - N/A   Clear
6:51 PM 96.1 °F - 43.0 °F 16% 29.83 in 10.0 mi SSE 10.4 mph - N/A   Clear
7:51 PM 91.9 °F - 45.0 °F 20% 29.82 in 10.0 mi SE 6.9 mph - N/A   Clear
8:51 PM 86.0 °F - 46.9 °F 26% 29.84 in 10.0 mi South 6.9 mph - N/A   Clear
9:51 PM 82.0 °F - 48.0 °F 30% 29.86 in 10.0 mi South 5.8 mph - N/A   Clear
10:51 PM 82.9 °F - 46.0 °F 27% 29.87 in 10.0 mi SSE 5.8 mph - N/A   Clear
11:51 PM 80.1 °F - 48.0 °F 32% 29.88 in 10.0 mi SSE 9.2 mph - N/A   Clear